Weather History for LESO - October, 2012

Change the Weather History Date:

Monday, October 8, 2012

  Actual Average Record
Temperature  
Mean Temperature 72 °F -  
Max Temperature 82 °F 65 °F 84 °F (1997)
Min Temperature 62 °F 53 °F 48 °F (1996)
Cooling Degree Days 7    
Growing Degree Days 22 (Base 50)    
Moisture  
Dew Point 63 °F    
Average Humidity 78    
Maximum Humidity 94    
Minimum Humidity 51    
Precipitation  
Precipitation 0.00 in - - ()
Sea Level Pressure  
Sea Level Pressure 30.04 in    
Wind  
Wind Speed 3 mph ()    
Max Wind Speed 12 mph    
Max Gust Speed 25 mph    
Visibility 6.2 miles    
Events      
Averages and records for this station are not official NWS values.
T = Trace of Precipitation, MM = Missing Value Source: Averaged Metar Reports

Daily Weather History Graph

Daily Weather History Graph

Search for Another Location

Airport or City:

Trip Planner

Search our weather history database for the weather conditions in past years. The results will help you decide how hot, cold, wet, or windy it might be!

Date:

Astronomy

Oct. 08, 2012 Rise Set
Actual Time 8:13 AM CEST 7:35 PM CEST
Civil Twilight 7:44 AM CEST 8:03 PM CEST
Nautical Twilight 7:11 AM CEST 8:36 PM CEST
Astronomical Twilight 6:38 AM CEST 9:10 PM CEST
Moon 12:27 AM CEST (10/8) 3:25 PM CEST (10/8)
Length of Visible Light 12h 19m
Length of Day
11h 22m
Waning Gibbous, 49% of the Moon is Illuminated
Oct 8
Waning Gibbous
Oct 15
New
Oct 22
First Quarter
Oct 29
Full
Nov 7
Last Quarter

Hourly Weather History & Observations

Time (CEST) Temp. Heat Index Dew Point Humidity Pressure Visibility Wind Dir Wind Speed Gust Speed Precip Events Conditions
5:30 AM 62.6 °F - 60.8 °F 94% 30.04 in - Calm Calm - N/A   Clear
6:00 AM 62.6 °F - 60.8 °F 94% 30.04 in - Calm Calm - N/A   Clear
6:30 AM 62.6 °F - 60.8 °F 94% 30.04 in - Calm Calm - N/A   Clear
7:00 AM 62.6 °F - 60.8 °F 94% 30.04 in - Variable 2.3 mph - N/A   Clear
7:30 AM 62.6 °F - 60.8 °F 94% 30.01 in - Calm Calm - N/A   Clear
8:00 AM 62.6 °F - 60.8 °F 94% 30.01 in - Variable 1.2 mph - N/A   Clear
8:30 AM 62.6 °F - 60.8 °F 94% 30.01 in - Variable 1.2 mph - N/A   Clear
9:00 AM 62.6 °F - 60.8 °F 94% 30.01 in - Variable 1.2 mph - N/A   Clear
9:30 AM 64.4 °F - 62.6 °F 94% 30.01 in - Variable 1.2 mph - N/A   Clear
10:00 AM 64.4 °F - 62.6 °F 94% 30.01 in - Variable 2.3 mph - N/A   Clear
10:30 AM 68.0 °F - 64.4 °F 88% 30.01 in - Variable 1.2 mph - N/A   Clear
11:00 AM 69.8 °F - 64.4 °F 83% 30.01 in - Calm Calm - N/A   Clear
11:30 AM 73.4 °F - 64.4 °F 73% 30.01 in - Variable 1.2 mph - N/A   Clear
12:00 PM 77.0 °F - 64.4 °F 65% 30.01 in - Variable 1.2 mph - N/A   Clear
12:30 PM 78.8 °F - 64.4 °F 61% 30.01 in - South 5.8 mph - N/A   Clear
1:00 PM 82.4 °F 83.4 °F 62.6 °F 51% 30.01 in - South 5.8 mph - N/A   Clear
1:30 PM 78.8 °F - 64.4 °F 61% 29.98 in - North 3.5 mph - N/A   Clear
2:00 PM 77.0 °F - 64.4 °F 65% 29.98 in - NNE 6.9 mph - N/A   Clear
2:30 PM 78.8 °F - 60.8 °F 54% 29.98 in - North 8.1 mph - N/A   Clear
3:00 PM 80.6 °F 81.5 °F 60.8 °F 51% 29.98 in - WNW 10.4 mph 25.3 mph N/A   Clear
3:30 PM 80.6 °F 81.5 °F 60.8 °F 51% 30.01 in - Variable 5.8 mph 19.6 mph N/A   Clear
4:00 PM 77.0 °F - 64.4 °F 65% 30.01 in - Variable 11.5 mph 25.3 mph N/A   Clear
4:30 PM 71.6 °F - 66.2 °F 83% 30.06 in 6.2 mi Variable 10.4 mph 24.2 mph N/A   Mostly Cloudy
5:00 PM 69.8 °F - 64.4 °F 83% 30.09 in 6.2 mi Variable 6.9 mph - N/A   Mostly Cloudy
5:30 PM 71.6 °F - 62.6 °F 73% 30.09 in 6.2 mi Variable 5.8 mph - N/A   Partly Cloudy
6:00 PM 71.6 °F - 62.6 °F 73% 30.09 in 6.2 mi SW 5.8 mph - N/A   Scattered Clouds
6:30 PM 69.8 °F - 62.6 °F 78% 30.09 in 6.2 mi SW 6.9 mph - N/A   Mostly Cloudy
7:00 PM 69.8 °F - 62.6 °F 78% 30.09 in 6.2 mi SW 3.5 mph - N/A   Mostly Cloudy
7:30 PM 69.8 °F - 62.6 °F 78% 30.09 in 6.2 mi WSW 3.5 mph - N/A   Mostly Cloudy
8:00 PM 69.8 °F - 62.6 °F 78% 30.09 in 6.2 mi WSW 5.8 mph - N/A   Mostly Cloudy
8:30 PM 69.8 °F - 62.6 °F 78% 30.12 in 6.2 mi WSW 3.5 mph - N/A   Mostly Cloudy
9:00 PM 69.8 °F - 62.6 °F 78% 30.12 in 6.2 mi SW 3.5 mph - N/A   Mostly Cloudy
9:30 PM 69.8 °F - 62.6 °F 78% 30.12 in 6.2 mi Variable 2.3 mph - N/A   Mostly Cloudy